Total_Precipitation_Accumulation
0.64 0.84 0.75 0.53 0.53 0.46 0.36 0.34 0.24 0.14 0.12 0.23 0.23 0.15 0.11 0.12 0.14 0.14 0.15 0.18 0.19 0.19 0.24 0.31 0.40 0.49 0.57 0.62 0.68 0.78 0.93 1.08 1.25 1.38 1.46 1.41 1.37 1.25 1.21 1.17 1.09 0.97 0.92 0.93
0.74 0.67 0.36 0.27 0.33 0.39 0.40 0.43 0.32 0.20 0.14 0.24 0.24 0.16 0.11 0.12 0.15 0.16 0.16 0.20 0.22 0.19 0.23 0.28 0.38 0.51 0.58 0.63 0.66 0.73 0.88 0.99 1.15 1.29 1.34 1.40 1.35 1.29 1.23 1.19 1.14 1.05 0.95 0.99
0.59 0.39 0.24 0.31 0.42 0.52 0.47 0.41 0.32 0.29 0.25 0.27 0.31 0.24 0.11 0.10 0.11 0.14 0.15 0.17 0.20 0.21 0.22 0.25 0.34 0.46 0.57 0.62 0.68 0.74 0.81 0.93 1.06 1.29 1.50 1.62 1.67 1.54 1.39 1.27 1.15 1.02 0.95 0.92
0.45 0.26 0.29 0.39 0.44 0.53 0.52 0.28 0.28 0.34 0.53 0.53 0.42 0.46 0.14 0.09 0.09 0.11 0.13 0.13 0.15 0.19 0.19 0.21 0.29 0.40 0.50 0.60 0.72 0.80 0.78 0.89 1.06 1.24 1.49 1.63 1.68 1.55 1.31 1.18 1.15 1.09 1.00 0.95
0.58 0.30 0.36 0.42 0.33 0.38 0.42 0.28 0.32 0.40 0.64 0.73 0.49 0.53 0.20 0.11 0.12 0.10 0.11 0.12 0.12 0.16 0.17 0.18 0.24 0.33 0.42 0.59 0.72 0.82 0.86 0.93 1.06 1.19 1.37 1.59 1.69 1.59 1.45 1.33 1.23 1.14 1.10 1.05
0.47 0.32 0.40 0.35 0.25 0.31 0.38 0.45 0.54 0.65 1.05 1.31 0.48 0.44 0.28 0.17 0.19 0.15 0.12 0.12 0.12 0.15 0.18 0.17 0.22 0.29 0.38 0.55 0.65 0.81 0.92 0.96 1.08 1.15 1.28 1.44 1.63 1.71 1.64 1.52 1.41 1.26 1.18 1.10
0.58 0.42 0.41 0.36 0.42 0.46 0.66 1.12 1.70 1.89 1.93 1.16 0.25 0.30 0.30 0.18 0.15 0.18 0.18 0.15 0.13 0.14 0.17 0.18 0.21 0.26 0.32 0.51 0.62 0.75 0.92 0.93 1.02 1.09 1.18 1.32 1.50 1.67 1.76 1.65 1.47 1.36 1.33 1.22
0.72 0.57 0.45 0.45 0.52 0.63 0.70 1.02 1.39 1.29 0.83 0.35 0.18 0.27 0.25 0.16 0.12 0.11 0.12 0.13 0.13 0.14 0.16 0.18 0.20 0.23 0.28 0.38 0.51 0.65 0.85 0.88 0.90 0.99 1.07 1.23 1.42 1.60 1.71 1.73 1.56 1.43 1.34 1.24
0.82 0.52 0.30 0.29 0.31 0.42 0.68 0.75 0.68 0.92 0.66 0.40 0.28 0.23 0.19 0.11 0.08 0.07 0.08 0.09 0.12 0.15 0.15 0.16 0.20 0.22 0.27 0.33 0.44 0.58 0.80 0.88 0.82 0.89 0.98 1.10 1.25 1.47 1.58 1.63 1.62 1.50 1.43 1.35
0.97 0.69 0.34 0.30 0.38 0.45 0.54 0.67 0.78 1.22 1.11 0.64 0.36 0.22 0.25 0.17 0.12 0.10 0.10 0.10 0.11 0.13 0.14 0.15 0.18 0.20 0.24 0.29 0.40 0.54 0.71 0.88 0.87 0.86 0.92 1.00 1.07 1.26 1.43 1.56 1.66 1.54 1.48 1.45
0.88 0.93 0.60 0.51 0.68 0.74 0.64 0.83 1.05 1.09 0.87 0.69 0.50 0.37 0.32 0.24 0.20 0.16 0.13 0.11 0.11 0.12 0.14 0.14 0.16 0.18 0.21 0.25 0.33 0.50 0.63 0.79 0.93 0.94 0.92 1.00 1.06 1.18 1.30 1.35 1.44 1.51 1.51 1.47
0.83 1.10 0.84 0.56 0.50 0.53 0.68 0.79 0.91 1.11 0.86 0.49 0.49 0.44 0.29 0.20 0.18 0.18 0.15 0.11 0.10 0.11 0.13 0.14 0.15 0.16 0.19 0.22 0.28 0.40 0.57 0.71 0.84 0.93 0.97 1.00 1.07 1.19 1.25 1.25 1.24 1.28 1.39 1.42
1.23 1.49 1.23 0.93 0.79 0.69 0.87 0.80 0.78 0.82 0.75 0.58 0.49 0.37 0.23 0.16 0.14 0.16 0.16 0.12 0.11 0.10 0.11 0.14 0.14 0.15 0.18 0.21 0.26 0.33 0.45 0.61 0.76 0.87 0.96 0.94 1.04 1.12 1.14 1.17 1.20 1.18 1.23 1.37
1.37 1.49 1.14 1.05 0.96 0.87 0.85 0.71 0.64 0.83 0.98 0.60 0.34 0.26 0.22 0.19 0.17 0.17 0.16 0.14 0.13 0.11 0.10 0.12 0.15 0.15 0.17 0.19 0.21 0.27 0.37 0.48 0.69 0.85 0.99 0.92 0.96 1.08 1.07 1.09 1.16 1.16 1.18 1.30
1.16 1.19 0.60 0.37 0.32 0.42 0.50 0.48 0.50 0.65 0.64 0.53 0.32 0.25 0.27 0.25 0.24 0.24 0.22 0.18 0.13 0.12 0.11 0.11 0.14 0.17 0.18 0.19 0.19 0.23 0.31 0.38 0.57 0.80 0.99 0.99 0.94 1.00 1.06 1.06 1.14 1.20 1.24 1.30
1.02 1.02 0.52 0.30 0.20 0.28 0.35 0.31 0.36 0.39 0.41 0.37 0.28 0.32 0.28 0.26 0.22 0.22 0.23 0.21 0.18 0.16 0.15 0.12 0.13 0.16 0.19 0.20 0.20 0.24 0.27 0.34 0.47 0.66 0.85 0.95 0.94 0.97 1.04 1.02 1.09 1.17 1.23 1.28
0.98 0.96 0.81 0.47 0.21 0.42 0.60 0.42 0.40 0.40 0.41 0.39 0.38 0.38 0.30 0.28 0.27 0.26 0.25 0.24 0.24 0.22 0.19 0.16 0.16 0.17 0.18 0.19 0.21 0.24 0.26 0.28 0.37 0.52 0.70 0.84 0.86 0.86 0.91 0.93 1.02 1.12 1.21 1.21
0.82 0.92 1.11 0.74 0.55 0.92 0.66 0.34 0.35 0.42 0.47 0.43 0.40 0.36 0.33 0.32 0.32 0.29 0.26 0.28 0.28 0.25 0.22 0.20 0.20 0.19 0.18 0.17 0.18 0.20 0.23 0.26 0.31 0.42 0.57 0.75 0.80 0.80 0.80 0.83 0.89 0.99 1.10 1.16
0.50 0.90 1.35 1.10 0.82 0.57 0.35 0.24 0.35 0.46 0.52 0.44 0.35 0.29 0.28 0.28 0.27 0.28 0.26 0.23 0.24 0.23 0.22 0.21 0.23 0.24 0.22 0.20 0.20 0.21 0.23 0.25 0.29 0.41 0.52 0.65 0.76 0.76 0.73 0.78 0.81 0.86 0.93 1.02
0.58 0.96 1.52 1.31 0.98 0.59 0.38 0.19 0.22 0.39 0.58 0.36 0.29 0.26 0.26 0.28 0.35 0.32 0.24 0.18 0.16 0.16 0.16 0.17 0.18 0.20 0.21 0.22 0.22 0.23 0.27 0.28 0.30 0.43 0.53 0.58 0.67 0.70 0.67 0.73 0.79 0.81 0.83 0.87
0.91 1.38 1.53 1.10 0.90 0.45 0.25 0.16 0.21 0.51 0.62 0.31 0.25 0.23 0.24 0.32 0.36 0.27 0.18 0.16 0.14 0.14 0.14 0.14 0.15 0.18 0.21 0.22 0.23 0.24 0.28 0.32 0.34 0.43 0.49 0.54 0.59 0.63 0.62 0.70 0.72 0.77 0.81 0.81
0.70 0.96 0.97 0.89 0.98 0.54 0.23 0.22 0.46 0.56 0.28 0.21 0.19 0.19 0.20 0.21 0.19 0.16 0.16 0.14 0.14 0.14 0.13 0.13 0.14 0.16 0.17 0.20 0.21 0.22 0.28 0.35 0.38 0.41 0.44 0.51 0.58 0.60 0.61 0.71 0.71 0.71 0.78 0.81
0.55 0.76 0.78 0.73 0.65 0.43 0.31 0.36 0.37 0.30 0.24 0.18 0.18 0.17 0.19 0.19 0.18 0.18 0.18 0.15 0.15 0.14 0.13 0.13 0.14 0.15 0.16 0.18 0.20 0.22 0.27 0.34 0.43 0.43 0.44 0.50 0.59 0.66 0.68 0.74 0.76 0.75 0.75 0.78
0.38 0.42 0.54 0.47 0.36 0.31 0.29 0.26 0.22 0.18 0.18 0.17 0.17 0.19 0.20 0.20 0.19 0.20 0.19 0.18 0.17 0.16 0.14 0.14 0.14 0.17 0.19 0.22 0.23 0.25 0.28 0.35 0.45 0.46 0.47 0.51 0.58 0.68 0.71 0.74 0.76 0.78 0.80 0.88
0.32 0.34 0.42 0.39 0.29 0.24 0.20 0.20 0.20 0.17 0.15 0.14 0.15 0.17 0.19 0.19 0.19 0.19 0.20 0.21 0.20 0.18 0.15 0.14 0.15 0.18 0.21 0.24 0.25 0.25 0.28 0.36 0.45 0.49 0.49 0.51 0.55 0.68 0.72 0.75 0.78 0.81 0.79 0.97
0.24 0.31 0.38 0.34 0.26 0.30 0.24 0.20 0.19 0.19 0.17 0.16 0.17 0.17 0.17 0.18 0.19 0.20 0.22 0.22 0.21 0.19 0.17 0.15 0.15 0.16 0.21 0.25 0.27 0.27 0.29 0.36 0.45 0.52 0.55 0.54 0.56 0.67 0.71 0.75 0.81 0.85 0.85 0.89